Погода в Жоасабе

Бразилия     27°10′37″S   51°30′14″W
темп.,
°C
ветер,
м/с
пор.,
м/с
влажн.,
%
обл.,
%
осадки,
мм/ч
давл.,
гПа
погр.,
м
27 февраля, сб
сб2700:00+18св211850 0.0 1017704
03:00+15св29972 0.0 1017379
06:00+14всв27987 0.0 1017234
09:00+21в376815 0.0 10181062
12:00+26в375381 0.0 10171501
15:00+26вюв355581 0.3 10151468
18:00+21в28961 2.9 1015539
21:00+17в212970 3.5 1017718
28 февраля, вс
вс2800:00+15в212970 0.0 1018812
03:00+17всв2119139 0.0 1016824
06:00+16всв2119231 0.0 1017608
09:00+22всв386416 0.0 10171018
12:00+27в35450 0.0 10151575
15:00+27всв235225 0.1 10121460
18:00+23св018436 0.5 101134
21:00+19в259741 1.2 1013177
1 марта, пн
пн100:00+17св189912 0.0 1014306
03:00+16св149911 0.0 1012133
06:00+16всв129918 0.0 101379
09:00+20св248421 0.0 1014473
12:00+24зсз128350 2.3 1012771
15:00+24ююз138638 7.9 1010638
18:00+23юв01946 3.3 101028
21:00+18всв11984 3.3 101224
2 марта, вт
вт200:00+17всв12992 0.0 101337
03:00+16св12995 0.0 101242
06:00+16св11998 0.0 101326
09:00+22св12835 0.1 1014329
12:00+25з248712 2.9 1013920
15:00+25юз149154 9.1 1011599
18:00+22всв1197100 2.4 101154
21:00+19св2298100 2.8 101467
3 марта, ср
ср300:00+18св129968 0.4 101555
03:00+17всв249940 0.5 1014128
06:00+16всв119920 0.0 101526
09:00+22св128517 0.0 1016346
12:00+25зсз11862 2.7 1014383
15:00+30зсз12493 5.1 10121456
18:00+23ююв139574 1.5 1012109
21:00+20всв129787 2.4 101427